sat.trackr.live / text

‹ back to catalog

STARLINK-1995

NORAD 47590 · 2021-009AU

PAYLOAD ACTIVE UNKNOWN

§ Identity

Operator
Country
US
Launch date
2021-02-04
Launch site
AFETR
Launch vehicle
Mass (kg)
RCS (m²)

Purposes: comms

External: N2YO · Heavens-Above · Gunter

§ Orbital elements

Epoch: 2026-05-24T19:21:22.559040Z

Period
91.62 min
Inclination
53.0402°
Eccentricity
0.0001791
Mean motion
15.71790783 rev/d
Perigee alt
352.6 km
Apogee alt
355.0 km
Semi-major
6,731.9 km
B*
6.6743e-4
RAAN
6.2305°
Arg perigee
120.7026°
Mean anomaly
239.4168°
Rev number
29,274

§ Raw data

STARLINK-19951 47590U 21009AU  26144.80651110  .00088567  00000+0  66743-3 0  99982 47590  53.0402   6.2305 0001791 120.7026 239.4168 15.71790783292748

JSON: /api/v1/satellites/47590 · /tle

For live sub-satellite position, see the globe view (requires WebGL).

§ Visibility from observer

Set your observer location to see the next 7 days of passes ≥ 10°. The values pass through the URL so the page stays shareable.

No JS? Fill the form by hand. The geolocation button needs JavaScript.